Weather in Sovetsky

Russia / Mari El Republic     56°45′39″N   48°28′45″E
temp.,
°C
wind,
m/s
gust,
m/s
humid.,
%
clouds,
%
prec.,
mm/h
press.,
hPa
HPBL,
m
28 february, sun
sun2800:00−19n499780 0.0 1007173
03:00−20n499749 0.0 1009167
06:00−21n489835 0.0 1010143
09:00−18n479435 0.0 1010248
12:00−15n479158 0.0 1011339
15:00−14n589163 0.0 1012445
18:00−17n379689 0.0 1014121
21:00−19n339867 0.0 101726
1 march, mon
mon100:00−21n23980 0.0 101821
03:00−22nnw23980 0.0 102020
06:00−23n22980 0.0 102120
09:00−18nw11930 0.0 102195
12:00−14w238957 0.0 1020304
15:00−11sw359277 0.0 1019381
18:00−12ssw4897100 0.0 1016251
21:00−13ssw4997100 0.1 1014244
2 march, tue
tue200:00−10ssw61294100 0.3 1009366
03:00−6ssw61295100 1.7 1005536
06:00−4ssw61196100 1.4 1000538
09:00−1sw5998100 3.3 998490
12:000w4899100 1.6 996486
15:000wnw58100100 2.3 996539
18:00−1nnw61193100 0.8 996543
21:00−5nw489598 0.8 998149
3 march, wed
wed300:00−6nnw3496100 0.0 99881
03:00−5nnw379799 0.1 1000188
06:00−9nnw369673 0.0 100199
09:00−6nw489577 0.0 1002310
12:00−3nnw5992100 0.1 1003670
15:00−4nnw71090100 0.4 1005899
18:00−7nw4119098 0.1 1006359
21:00−9nw4119478 0.1 1009275
4 march, thu
thu400:00−12wnw379736 0.0 1009103
03:00−13w369851 0.0 1009108
06:00−13wsw379898 0.1 1009157
09:00−10sw5109599 0.1 1007280
12:00−4sw71492100 0.0 1003671
15:00−2sw81494100 0.8 1000846
18:00−1sw81596100 1.4 997878
21:000wsw91697100 2.4 9951069